Location: Unspecified
(0.0000°N, 0.0000°E)
Time: 23:13:35
(UTC+00:00)

Tiros 1 despin weight - All Passes

Search period start: 24 January 2017 00:00
Search period end: 03 February 2017 00:00
Orbit: 595 x 644 km, 48.2° (Epoch: 24 January)

Date Brightness Start Highest point End Pass type
(mag) Time Alt. Az. Time Alt. Az. Time Alt. Az.
24 Jan - 00:18:37 10° WSW 00:22:31 26° NW 00:26:25 10° N night (unlit)
24 Jan - 10:45:31 10° NNW 10:49:36 37° NE 10:53:41 10° ESE daylight
24 Jan - 12:28:30 10° W 12:31:01 15° SW 12:33:31 10° SSW daylight
24 Jan - 22:53:27 10° SSW 22:58:07 66° SE 23:02:46 10° NE night (unlit)
25 Jan - 11:02:14 10° NW 11:06:37 73° SW 11:11:01 10° SSE daylight
25 Jan - 21:31:05 10° SSE 21:33:40 15° SE 21:36:16 10° E night (unlit)
25 Jan - 23:10:41 10° WSW 23:15:09 44° NW 23:19:37 10° NNE night (unlit)
26 Jan - 09:38:51 10° N 09:42:16 22° NE 09:45:40 10° E daylight
26 Jan - 11:20:01 10° WNW 11:23:40 25° SW 11:27:19 10° S daylight
26 Jan - 21:46:26 10° SSW 21:50:46 37° SE 21:55:06 10° ENE night (unlit)
26 Jan - 23:29:11 10° W 23:32:14 17° NW 23:35:16 10° N night (unlit)
27 Jan - 09:54:57 10° NNW 09:59:19 61° NE 10:03:40 10° SE daylight
27 Jan - 22:03:07 10° SW 22:07:48 78° NW 22:12:29 10° NE night (unlit)
28 Jan - 08:32:55 10° NNE 08:34:55 13° NE 08:36:52 10° ENE daylight
28 Jan - 10:12:07 10° WNW 10:16:20 44° SW 10:20:33 10° SSE daylight
28 Jan - 20:39:46 10° S 20:43:24 22° SE 20:47:02 10° ENE visible
28 Jan - 22:20:50 10° WSW 22:24:50 28° NW 22:28:52 10° N night (unlit)
29 Jan - 08:47:58 10° NNW 08:52:00 34° NE 08:56:01 10° ESE daylight
29 Jan - 10:30:38 10° W 10:33:24 16° SW 10:36:11 10° S daylight
29 Jan - 20:55:51 10° SSW 21:00:27 60° SE 21:05:04 10° NE visible
29 Jan - 22:40:49 10° WNW 22:41:58 11° NW 22:43:06 10° NW night (unlit)
30 Jan - 09:04:35 10° NW 09:09:02 81° SW 09:13:27 10° SE daylight
30 Jan - 19:33:48 10° SSE 19:36:00 13° SE 19:38:13 10° ESE visible
30 Jan - 21:12:59 10° SW 21:17:28 48° NW 21:22:00 10° NNE visible
31 Jan - 07:41:22 10° N 07:44:39 20° NE 07:47:55 10° E daylight
31 Jan - 09:22:15 10° WNW 09:26:04 28° SW 09:29:51 10° S daylight
31 Jan - 19:48:53 10° SSW 19:53:06 34° SE 19:57:19 10° ENE visible
31 Jan - 21:31:19 10° W 21:34:33 18° NW 21:37:47 10° N visible
01 Feb - 07:57:20 10° NNW 08:01:43 56° NE 08:06:03 10° SE daylight
01 Feb - 09:42:40 10° SW 09:43:10 10° SW 09:43:39 10° SW daylight
01 Feb - 20:05:29 10° SW 20:10:08 85° NW 20:14:48 10° NE visible
02 Feb - 06:35:38 10° NNE 06:37:16 12° NE 06:38:54 10° ENE daylight
02 Feb - 08:14:26 10° NW 08:18:44 49° SW 08:23:01 10° SSE daylight
02 Feb - 18:42:19 10° S 18:45:44 20° SE 18:49:09 10° E visible
02 Feb - 20:23:04 10° WSW 20:27:10 30° NW 20:31:16 10° NNE visible
